Lapse_Rate
5.2 5.8 6.2 6.3 6.1 6.0 5.8 5.7 5.9 5.9 5.9 5.7 5.6 5.5 5.5 5.3 5.1 5.0 5.1 5.1 5.4 5.4 5.3 5.2 5.2 5.3 5.3 5.3 5.3 5.4 5.4 5.3 5.2 5.1 5.2 5.0 5.1 5.0 5.2 5.3 5.3 5.2 5.2
5.0 5.8 5.9 5.7 5.8 5.8 5.8 5.9 5.7 5.7 5.5 5.4 5.4 5.3 5.3 5.1 5.1 5.1 5.0 5.2 5.4 5.5 5.5 5.5 5.5 5.4 5.4 5.3 5.3 5.2 5.2 5.2 5.0 4.9 5.2 5.0 5.3 5.0 4.9 4.9 4.9 5.0 5.0
5.6 6.0 5.9 5.7 5.9 5.9 5.9 5.6 5.8 5.7 5.5 5.3 5.3 5.2 5.1 5.2 5.0 5.0 5.0 5.2 5.3 5.3 5.4 5.5 5.5 5.6 5.5 5.4 5.3 5.2 5.1 5.1 5.2 5.0 5.0 5.0 4.8 4.7 4.7 4.5 4.4 4.4 4.5
6.5 6.0 5.9 5.8 6.0 6.2 6.0 5.8 5.8 5.8 5.5 5.4 5.3 5.2 5.1 5.1 4.9 4.8 4.9 5.0 5.0 5.1 5.3 5.3 5.4 5.3 5.2 5.3 5.4 5.3 5.2 5.0 5.0 4.8 4.7 4.6 4.5 4.7 4.5 4.2 4.3 4.5 4.2
6.9 6.4 6.2 5.8 6.0 6.0 5.9 5.8 5.9 5.9 5.6 5.4 5.2 5.1 5.0 4.8 4.8 4.8 4.8 4.8 4.8 4.9 5.0 5.0 5.0 5.1 5.2 5.2 5.2 5.2 5.2 5.2 5.1 5.1 5.0 4.8 4.7 4.6 4.5 4.3 4.4 3.9 4.2
6.9 6.5 6.2 6.0 5.8 6.0 5.9 5.7 5.8 5.9 5.7 5.5 5.3 5.3 5.1 4.8 4.8 4.8 4.7 4.7 4.7 4.8 4.9 4.9 5.1 5.2 5.1 5.1 5.1 5.2 5.1 5.0 4.9 4.8 4.7 4.6 4.5 4.5 4.4 4.4 4.3 4.1 4.1
6.5 6.3 6.1 6.2 6.1 6.0 6.0 5.7 5.8 6.0 6.0 5.6 5.5 5.5 5.3 5.2 5.0 4.9 5.0 5.0 5.0 5.0 5.0 5.0 5.0 4.9 4.9 5.0 5.0 5.0 5.0 5.0 4.9 4.8 4.7 4.6 4.6 4.6 4.6 4.5 4.4 4.4 4.4
5.9 6.0 5.8 6.2 6.3 6.1 6.2 5.8 5.6 5.9 6.0 5.8 5.8 5.6 5.6 5.5 5.4 5.2 5.2 5.2 5.1 4.9 4.9 4.8 4.8 4.9 4.8 4.7 4.8 4.7 4.7 4.6 4.6 4.6 4.5 4.5 4.5 4.4 4.4 4.3 4.2 4.2 4.3
5.9 5.9 5.9 6.0 6.1 6.0 6.1 6.1 5.9 6.0 6.0 5.9 5.8 5.7 5.8 5.5 5.7 5.4 5.2 5.1 4.9 4.8 4.8 4.8 4.8 4.7 4.6 4.5 4.5 4.4 4.5 4.5 4.5 4.5 4.5 4.6 4.6 4.6 4.5 4.4 4.5 4.5 4.3
6.3 6.4 6.0 5.6 6.1 6.0 5.9 6.1 5.8 5.7 5.6 5.9 5.9 5.7 5.4 5.4 5.6 5.5 5.2 4.9 4.6 4.5 4.7 4.6 4.7 4.7 4.6 4.4 4.4 4.4 4.3 4.4 4.6 4.8 4.8 4.9 4.8 4.9 5.0 4.9 4.8 4.8 4.7
6.3 6.2 5.8 5.4 6.0 6.2 6.2 6.4 6.1 6.0 6.1 6.2 6.1 5.6 5.6 5.4 5.5 5.4 4.8 4.6 4.7 4.6 4.5 4.7 4.7 4.9 4.6 4.6 4.4 4.5 4.7 4.8 5.0 5.0 5.0 5.0 5.0 5.0 5.1 5.3 5.3 5.3 5.1
6.5 6.5 6.4 6.2 6.0 6.5 6.8 6.6 6.4 6.3 6.4 6.3 6.3 6.0 6.0 5.8 5.6 5.3 5.0 4.7 4.8 4.8 4.7 4.6 4.7 4.8 4.7 4.7 4.7 4.8 5.0 5.2 5.2 5.1 5.0 5.0 4.8 4.9 5.2 5.3 5.4 5.5 5.5
6.4 6.7 6.8 6.7 6.7 6.9 6.9 6.8 6.6 6.6 6.4 6.5 6.3 5.7 5.8 5.7 5.7 5.6 5.2 4.8 4.7 4.7 4.9 4.7 4.8 5.1 4.9 4.8 4.8 5.1 5.3 5.3 5.1 5.0 5.0 5.1 5.1 5.3 5.4 5.6 5.8 5.7 5.9
6.9 6.7 6.6 6.8 6.9 6.9 6.9 7.4 6.9 6.7 6.6 6.4 6.2 5.9 5.9 5.8 5.6 5.4 5.2 5.5 5.3 5.3 5.2 4.8 4.8 4.9 5.0 5.1 5.2 5.4 5.4 5.3 5.2 5.2 5.2 5.3 5.5 5.6 5.7 5.7 5.7 5.6 5.6
7.4 7.2 7.1 6.9 6.9 7.0 6.9 6.9 6.7 6.8 6.8 6.7 6.5 6.3 6.1 6.0 6.0 5.9 5.6 5.6 5.5 5.5 5.3 4.7 4.9 5.0 5.3 5.3 5.5 5.5 5.4 5.4 5.5 5.5 5.5 5.6 5.6 5.6 5.6 5.8 5.8 5.7 5.6
7.5 7.3 7.2 7.0 6.8 6.7 6.8 6.8 6.8 6.7 6.5 6.5 6.3 6.2 6.3 6.3 6.1 5.9 5.8 5.8 5.8 5.7 5.5 5.2 5.2 5.2 5.2 5.4 5.4 5.4 5.4 5.5 5.5 5.6 5.6 5.5 5.6 5.6 5.6 5.6 5.6 5.6 5.6
7.1 7.0 6.8 6.8 6.6 6.5 6.5 6.5 6.6 6.6 6.5 6.5 6.4 6.4 6.4 6.3 6.1 5.9 5.9 5.8 5.8 5.6 5.5 5.4 5.5 5.3 5.4 5.4 5.4 5.4 5.4 5.5 5.5 5.5 5.5 5.6 5.6 5.6 5.6 5.5 5.5 5.5 5.4
6.9 6.8 6.7 6.7 6.6 6.4 6.4 6.4 6.4 6.4 6.2 6.3 6.3 6.3 6.2 6.1 6.0 6.1 6.0 5.9 5.8 5.7 5.7 5.5 5.4 5.4 5.5 5.4 5.3 5.3 5.4 5.4 5.5 5.5 5.5 5.4 5.4 5.5 5.5 5.4 5.1 5.2 5.3
6.7 6.8 6.7 6.5 6.4 6.4 6.3 6.2 6.3 6.2 6.2 6.2 6.2 6.2 6.2 6.1 6.1 6.0 6.1 6.0 5.9 5.7 5.6 5.5 5.5 5.4 5.3 5.4 5.5 5.4 5.3 5.4 5.4 5.3 5.3 5.3 5.4 5.6 5.3 4.8 4.6 4.8 5.2
6.7 6.6 6.6 6.5 6.3 6.2 6.3 6.2 6.1 6.1 6.1 6.0 6.0 5.9 6.0 5.8 5.8 5.8 5.8 5.8 5.6 5.4 5.3 5.3 5.3 5.2 5.3 5.3 5.2 5.1 5.1 4.7 4.6 4.5 4.4 4.7 4.8 4.7 4.6 4.6 4.8 4.9 5.0
6.5 6.4 6.3 6.1 6.1 6.0 5.9 5.9 5.9 5.9 5.9 5.8 5.6 5.7 5.4 5.4 5.3 5.6 5.6 5.5 5.3 5.2 5.3 5.2 5.1 4.9 5.1 5.1 4.9 4.9 4.4 4.2 4.4 4.5 4.6 4.7 5.3 5.6 5.0 4.7 4.8 5.1 5.2
5.9 5.8 5.7 5.6 5.6 5.6 5.6 5.7 5.7 5.6 5.6 5.5 5.5 5.4 5.2 5.1 5.3 5.3 5.2 5.1 5.1 5.1 5.3 5.3 5.0 4.6 4.4 4.7 4.8 4.9 4.9 5.0 5.2 5.5 5.6 5.7 5.7 5.7 5.7 5.7 5.0 4.9 5.2
5.6 5.6 5.4 5.4 5.3 5.4 5.3 5.4 5.5 5.4 5.4 5.3 5.1 5.0 4.9 5.1 5.1 4.9 4.8 4.9 5.2 5.1 5.0 4.9 4.9 5.0 4.9 5.1 5.3 5.3 5.2 5.4 5.5 5.8 5.8 5.7 5.7 5.8 5.9 5.8 5.8 5.5 5.6
5.6 5.6 5.5 5.2 5.2 5.0 5.3 5.4 5.3 5.3 4.8 4.7 4.6 4.7 5.1 5.2 5.3 5.2 5.2 5.2 5.1 5.3 5.1 5.0 5.0 5.0 5.1 5.2 5.3 5.4 5.4 5.6 5.8 5.9 6.0 6.0 6.1 6.1 6.1 6.1 6.0 6.0 6.0
5.6 5.8 5.7 5.5 5.2 5.2 5.3 5.1 5.1 4.8 4.8 4.8 5.0 5.1 5.2 5.3 5.2 5.2 5.1 5.0 5.1 5.4 5.2 5.2 5.1 5.2 5.2 5.3 5.6 5.8 5.9 6.1 6.2 6.1 6.2 6.3 6.3 6.3 6.3 6.2 6.2 6.2 6.1
6.5 6.2 6.2 6.0 5.6 5.2 5.2 4.8 4.8 4.8 5.0 4.9 5.2 5.3 5.2 5.1 5.3 5.6 5.4 5.1 5.4 5.3 5.5 5.4 5.3 5.3 5.3 5.7 5.9 6.1 6.2 6.3 6.2 6.3 6.2 6.3 6.4 6.3 6.3 6.2 6.2 6.2 6.2
Wind_Speed
3 5 8 6 6 5 5 4 6 7 6 7 6 6 6 7 6 5 6 7 8 8 7 8 8 8 6 5 4 3 3 4 5 3 2 3 3 6 9 11 11 11 13
4 6 8 7 6 6 6 7 6 7 6 7 8 7 8 8 7 7 7 8 9 9 9 9 9 7 8 8 6 7 5 3 6 7 2 2 4 5 8 7 9 11 11
10 9 8 8 8 6 5 5 7 6 6 7 8 8 7 8 8 8 8 9 10 10 10 10 10 10 10 8 8 7 6 5 6 6 4 2 2 3 5 6 5 7 7
11 9 9 8 7 7 6 5 4 6 6 7 7 7 7 8 8 7 8 9 9 9 10 11 12 11 8 8 8 8 7 8 8 7 5 3 2 3 2 3 3 3 3
11 10 9 8 8 8 7 6 5 5 6 7 6 6 6 5 6 7 7 7 9 9 10 11 12 13 16 17 7 7 7 8 7 6 5 3 2 2 1 1 1 2 0
13 10 9 10 9 9 8 8 7 6 6 6 6 7 6 7 6 9 6 8 8 9 9 9 9 10 14 14 14 18 15 7 8 7 6 6 5 4 3 3 3 2 2
12 9 8 8 9 10 9 8 8 7 6 5 5 6 8 8 5 5 5 7 8 8 8 7 8 8 8 10 8 12 14 14 11 7 7 7 7 5 3 3 3 1 0
9 8 7 7 9 8 9 9 8 7 8 7 6 7 8 7 4 5 1 7 7 7 8 8 9 9 8 8 10 11 12 12 10 9 9 8 8 5 3 3 1 1 2
9 6 5 8 8 8 10 10 7 8 7 7 7 7 7 7 3 3 5 6 7 7 6 6 7 8 7 10 8 8 9 9 14 17 14 13 13 12 10 6 1 4 4
12 9 8 8 9 9 10 10 8 6 6 6 6 5 3 7 2 3 6 5 5 5 5 6 10 7 6 8 4 4 5 5 4 6 6 6 5 7 9 8 6 5 5
8 8 7 7 6 6 7 8 6 6 8 6 7 5 5 2 4 1 5 4 4 3 3 4 5 5 6 8 8 5 4 3 3 3 3 2 1 3 6 7 8 6 7
5 6 7 4 5 7 9 8 8 7 9 8 7 6 4 4 4 5 1 7 6 4 4 4 4 4 5 6 2 3 3 6 1 1 1 2 4 4 4 6 4 6 6
3 3 3 3 2 3 8 9 8 6 7 6 6 6 5 4 5 6 5 6 5 5 4 6 8 5 6 7 2 5 8 1 2 2 3 4 4 4 5 2 3 4 9
4 3 2 3 4 3 4 5 7 9 8 6 5 5 5 4 5 6 6 5 6 6 6 4 2 1 5 5 6 5 4 4 4 4 3 3 3 4 4 4 5 5 5
3 3 4 4 4 5 6 3 4 3 4 6 6 6 6 6 5 5 2 6 6 5 4 5 6 6 5 3 3 2 3 2 3 3 4 4 4 4 3 3 4 5 5
5 5 5 5 5 4 6 6 15 9 8 10 5 3 4 9 11 8 6 7 6 6 7 7 5 3 2 2 2 4 4 3 4 4 4 4 4 4 5 5 4 4 5
6 6 5 5 6 6 6 7 7 6 10 10 8 8 6 11 7 8 7 5 4 3 7 5 5 3 3 2 2 2 4 4 1 3 4 4 4 4 3 5 4 4 5
7 2 6 5 6 6 7 8 8 8 8 7 4 5 9 8 7 6 6 4 6 7 6 5 5 4 4 3 2 2 2 1 1 3 3 4 4 5 5 5 5 5 6
7 7 7 7 8 7 8 8 8 8 7 8 8 6 7 6 6 4 4 7 7 6 5 5 4 4 4 3 2 1 1 2 4 4 4 4 4 5 5 5 6 4 3
6 3 5 7 6 8 7 7 7 7 7 8 8 8 9 8 7 8 8 7 5 5 5 5 5 4 4 3 3 3 4 4 4 5 3 4 5 5 7 8 8 8 9
6 7 7 7 7 7 7 8 8 8 8 8 7 8 11 8 7 7 7 6 6 6 5 5 6 6 5 5 5 4 5 5 5 5 5 6 6 7 9 10 9 10 10
7 9 8 7 7 7 8 8 8 8 8 8 8 7 4 7 5 6 7 7 6 5 4 4 6 5 5 3 3 5 6 5 5 4 5 6 6 7 8 9 11 12 11
8 9 10 8 7 8 7 9 8 7 7 7 7 9 9 7 6 6 6 6 4 4 4 6 5 2 1 2 2 3 5 3 3 4 5 6 7 8 9 10 11 12 12
9 8 5 9 9 10 10 9 7 6 5 7 7 6 7 8 8 8 5 3 1 4 5 6 6 5 5 4 4 3 3 3 4 5 6 7 8 8 8 9 9 10 10
8 9 11 9 8 8 4 7 9 7 8 5 5 5 5 5 6 5 5 5 4 6 7 6 6 7 6 4 5 6 5 5 5 4 8 7 6 7 7 7 8 8 10
9 10 9 7 11 9 7 8 7 7 5 4 4 3 4 3 3 5 5 7 7 6 8 8 7 7 8 7 6 8 6 4 3 5 7 7 5 6 5 8 9 7 9
Wind_Direction
158 156 135 137 144 155 147 123 101 84 74 80 76 71 69 61 50 55 62 56 51 49 39 37 36 32 30 37 40 35 143 120 116 92 85 87 80 93 85 78 73 74 67
195 170 155 156 163 159 148 121 104 96 88 90 88 79 77 71 58 60 58 56 60 50 44 48 39 41 32 27 56 40 47 70 118 118 103 87 69 68 83 81 73 68 71
188 183 172 168 172 167 138 124 122 112 104 91 88 86 83 78 74 62 57 60 60 58 51 53 33 41 51 48 50 56 58 47 115 129 117 93 95 93 83 73 74 73 64
184 187 188 186 172 163 148 148 134 125 115 102 89 86 85 83 75 69 66 65 65 62 62 53 51 45 47 59 60 67 75 78 72 96 95 96 88 103 105 113 97 75 84
183 201 196 186 174 160 164 156 155 143 121 116 112 102 100 82 57 68 70 72 74 71 63 71 59 56 45 36 54 59 84 93 98 99 95 100 109 157 123 112 105 109 345
178 201 197 175 179 173 172 163 178 155 142 139 130 121 110 89 43 21 44 77 71 71 70 69 71 92 72 57 57 56 45 55 73 95 107 108 108 120 152 162 152 212 166
192 185 199 170 181 187 178 172 187 167 142 143 137 130 115 112 100 74 346 92 91 83 75 68 67 61 54 79 104 88 59 48 51 85 82 60 76 74 111 172 170 99 115
205 187 177 168 197 181 181 180 182 170 163 162 155 145 130 111 116 115 291 102 96 87 82 80 73 68 35 47 74 76 69 56 43 66 65 53 52 47 20 72 58 118 163
201 194 169 184 196 169 183 188 175 180 170 163 157 153 142 129 142 194 262 127 102 89 79 53 81 76 18 352 82 86 90 97 80 81 85 80 66 49 16 301 252 246 199
186 171 159 177 185 189 195 182 162 182 178 156 142 147 88 138 117 310 312 116 119 115 107 98 57 56 18 6 74 99 97 77 73 114 122 121 106 84 52 30 350 331 328
149 157 161 163 168 179 182 162 152 173 156 154 137 148 131 118 150 283 351 136 152 113 82 95 82 54 52 26 351 20 43 339 154 193 173 140 141 109 62 41 21 352 347
131 158 153 164 160 154 155 149 146 160 159 159 155 159 140 119 37 144 66 55 73 129 108 102 90 78 83 23 26 22 208 239 231 228 227 63 3 25 45 22 21 2 12
151 154 142 139 122 217 156 139 138 151 163 153 169 163 150 142 112 116 130 129 118 125 128 88 119 153 145 120 123 260 251 85 24 51 35 40 22 45 302 279 257 226 223
189 168 144 111 99 94 118 145 151 169 163 166 179 162 166 156 151 163 155 143 124 136 125 144 143 327 26 76 200 221 59 33 13 24 15 8 343 355 2 2 334 336 317
172 159 143 136 115 96 67 57 118 88 188 161 168 172 187 165 156 91 131 166 169 134 167 168 188 201 185 164 120 77 69 96 47 19 359 351 351 346 5 349 343 327 320
189 191 181 155 137 130 128 95 48 48 71 91 89 134 112 88 114 113 103 94 108 172 203 198 188 167 133 111 111 123 107 96 39 29 23 13 3 349 5 325 330 331 326
209 190 164 173 149 150 141 131 115 60 67 64 87 76 71 120 125 126 128 140 169 212 230 192 174 176 154 136 117 90 95 68 284 33 17 21 4 354 292 351 345 328 332
202 132 187 178 172 170 169 165 160 165 157 145 98 135 112 128 139 140 158 199 185 216 242 185 176 177 173 157 144 118 111 126 48 346 350 356 358 345 336 339 329 353 342
202 182 193 186 194 190 183 184 180 176 161 146 139 161 141 138 136 152 196 240 203 191 192 176 180 179 188 176 157 179 320 334 359 331 318 321 328 320 328 321 323 231 255
204 47 222 185 160 184 178 173 160 158 155 161 169 154 158 168 179 184 197 213 203 202 187 195 179 200 193 202 195 218 233 208 232 260 293 315 302 302 305 309 306 312 303
202 172 240 184 179 168 169 160 158 161 157 161 150 139 155 196 174 172 181 184 203 188 199 212 195 193 217 208 243 238 254 265 286 275 293 313 315 300 316 306 302 303 299
206 177 196 193 169 172 177 164 167 168 162 162 149 139 145 236 178 181 195 190 198 213 213 227 247 243 244 308 324 281 283 283 295 314 300 300 300 297 294 299 305 300 300
233 183 199 197 185 172 198 186 180 186 184 184 179 161 187 217 223 209 204 203 195 218 212 245 259 241 193 204 232 269 295 327 339 323 304 304 295 294 308 306 300 305 306
237 197 213 203 199 193 195 203 197 209 229 207 196 214 177 213 228 222 201 183 224 206 215 213 215 202 162 170 157 134 70 20 328 316 308 297 300 303 310 304 302 308 304
228 214 212 214 198 215 181 237 217 213 200 205 201 201 196 224 228 203 181 189 179 203 196 182 174 153 155 150 115 99 93 60 29 333 286 295 300 300 291 302 304 311 302
231 202 206 214 211 189 214 232 232 213 221 153 141 149 167 176 113 125 185 195 205 191 180 175 167 159 159 153 128 128 121 86 39 351 314 288 293 296 321 308 302 304 300